Location: Unspecified
(0.0000°N, 0.0000°E)
Time: 16:34:51
(UTC+00:00)

Envisat - Pass Details

Date: 20 September 2020
Orbit: 764 x 766 km, 98.1° (Epoch: 19 September)

Event Time Altitude Azimuth Distance (km) Brightness Sun altitude
Rises 05:06:45 0° 29° (NNE) 3,215 6.7 -11.7°
Reaches altitude 10° 05:09:14 10° 38° (NE) 2,292 6.0 -11.0°
Maximum altitude 05:13:47 34° 102° (ESE) 1,236 4.9 -9.9°
Drops below altitude 10° 05:18:21 10° 166° (SSE) 2,302 5.6 -8.8°
Sets 05:20:50 0° 175° (S) 3,230 6.3 -8.1°
